LiveATC.Net - Listen to live air traffic control over the Internet! Contact LiveATC.net for advertising information

Find LiveATC Audio Streams


Airport/ARTCC Code

Frequency
(e.g., 124.400, 128.75)
Site-wide search

Browse LiveATC Feeds
LiveATC Coverage Map
Top 50 LiveATC Feeds
Bad Weather Areas

LiveATC FAQ
Offer a LiveATC Feed
Contact LiveATC.net
Press Inquiries

LiveATC on iPhone
LiveATC on Android

LiveATC Mobile
(Mobile browser)

ATC Audio Archives
Interesting Recordings

LiveATC Forums

Home Page
About LiveATC.net
Make a Donation
LiveATC Bookstore

Terms of Use
Privacy Policy

ATC/Radar Sites
U.S. ARTCC Freqs
Canadian Air Freqs

AIRMETs/SIGMETs

FAA Airport Status
Nat'l Airspace Status
Arrival Demand Charts


Server Software By:
Icecast.org
Liquidsoap

U.S. Feeds: Class B Airports | Class C Airports | Class D/Other Airports | ARTCC (Centers)
International Feeds: Canada | Europe | Oceania | Asia | South America | North & Central America | Africa
Misc Feeds: HF Feeds
All Feeds: All Feeds
Search by ICAO/IATA airport code:   (e.g., kbos, kjfk, lax, eham, etc.)


Currently Available Live Feeds: 1198
Status Updated: Sun Aug 30 2015 15:54:01 UTC


NOTICE

Unauthorized use prohibited. See LiveATC.net Terms of Service

ATC Facility
ATC Radio Frequencies

Africa Airport Feeds

 

FIMP Twr/App/Center (Archives)
Plaine Magnien, Mauritius

Feed Status: UP

Click on your favorite media player to listen:
Listen with WinAmp to FIMP Twr/App/Center  Listen with iTunes to FIMP Twr/App/Center  Click here to listen if using Real Player  Click here to listen if using Windows Media Player

Or simply listen in your browser:

Listen right in your browser(in browser, requires Flash)

FIMP 301500Z 11010KT 9999 BKN016 23/17 Q1023


Listeners: 6 out of 4384 total

FIMP Approach: 119.100
FIMP Tower: 118.100
Mauritius Centre: 129.300

FMEE Tower (Archives)
Sainte-Marie, Reunion

Feed Status: UP

Click on your favorite media player to listen:
Listen with WinAmp to FMEE Tower  Listen with iTunes to FMEE Tower  Click here to listen if using Real Player  Click here to listen if using Windows Media Player

Or simply listen in your browser:

Listen right in your browser(in browser, requires Flash)

FMEE 301500Z AUTO 10012KT 9999 NSC 21/12 Q1023


Listeners: 10 out of 4384 total

Gillot Tower: 118.400

FMEP Info (Archives)
Saint-Pierre, Reunion

Feed Status: UP

Click on your favorite media player to listen:
Listen with WinAmp to FMEP Info  Listen with iTunes to FMEP Info  Click here to listen if using Real Player  Click here to listen if using Windows Media Player

Or simply listen in your browser:

Listen right in your browser(in browser, requires Flash)

FMEP 301500Z AUTO 11016KT 9999 NSC 22/13 Q1022


Listeners: 4 out of 4384 total

Saint-Pierre Info: 122.400

Please make a donation to help us keep growing!